Voltar ao catálogo

ARIANE 5 R/B

AtivoHEO
NORAD 33057·ROCKET BODY·🇫🇷 France

Lançado Jun 12, 2008 de Guiana Space Centre

Loading…

Próximas Passagens (próximas 24 horas)

TLE

AtualizadoSource: Space-Track

Época: Sep 14, 2026, 04:24 UTC

1 33057U 08030C   26257.18354205  .00002164  00000-0  63022-3 0  9998
2 33057   1.7683 325.3317 7017188 348.9862   1.5419  2.61438453161555

Acompanhe ARIANE 5 R/B em tempo real com AllMySat

Download on the App Store